TimeEDT,TemperatureF,Dew PointF,Humidity,Sea Level PressureIn,VisibilityMPH,Wind Direction,Wind SpeedMPH,Gust SpeedMPH,PrecipitationIn,Events,Conditions,WindDirDegrees,DateUTC
12:13 AM,61.3,51.8,71,29.76,10.0,NNE,6.9,-,N/A,,Clear,30,2013-06-13 04:13:00
12:34 AM,60.3,51.4,73,29.76,10.0,NNE,5.8,-,N/A,,Clear,20,2013-06-13 04:34:00
12:54 AM,61.0,49.1,65,29.75,10.0,North,6.9,-,N/A,,Clear,360,2013-06-13 04:54:00
1:13 AM,59.4,49.5,70,29.75,10.0,North,8.1,-,N/A,,Clear,10,2013-06-13 05:13:00
1:34 AM,59.0,49.3,70,29.75,10.0,North,9.2,-,N/A,,Clear,10,2013-06-13 05:34:00
2:13 AM,58.1,49.5,73,29.75,10.0,North,8.1,-,N/A,,Clear,350,2013-06-13 06:13:00
2:34 AM,58.1,48.4,70,29.75,10.0,North,9.2,-,N/A,,Clear,350,2013-06-13 06:34:00
2:54 AM,57.7,48.4,71,29.75,10.0,North,8.1,-,N/A,,Clear,350,2013-06-13 06:54:00
3:13 AM,56.5,48.4,74,29.75,10.0,NNW,8.1,-,N/A,,Clear,340,2013-06-13 07:13:00
3:34 AM,55.8,48.4,76,29.75,10.0,North,8.1,-,N/A,,Clear,360,2013-06-13 07:34:00
3:54 AM,55.6,48.4,77,29.75,10.0,North,8.1,-,N/A,,Clear,350,2013-06-13 07:54:00
4:14 AM,54.7,48.2,79,29.75,10.0,North,5.8,-,N/A,,Clear,350,2013-06-13 08:14:00
4:34 AM,54.5,48.4,80,29.75,10.0,NNW,8.1,-,N/A,,Clear,340,2013-06-13 08:34:00
4:54 AM,54.0,48.2,81,29.75,10.0,North,8.1,-,N/A,,Clear,350,2013-06-13 08:54:00
5:13 AM,53.6,48.4,82,29.75,10.0,North,6.9,-,N/A,,Clear,350,2013-06-13 09:13:00
5:34 AM,52.9,48.2,84,29.76,10.0,North,6.9,-,N/A,,Clear,350,2013-06-13 09:34:00
5:54 AM,53.6,48.2,82,29.77,10.0,North,5.8,-,N/A,,Clear,350,2013-06-13 09:54:00
6:14 AM,53.2,48.6,84,29.78,10.0,North,9.2,-,N/A,,Clear,360,2013-06-13 10:14:00
6:34 AM,53.8,49.1,84,29.78,10.0,North,8.1,-,N/A,,Clear,360,2013-06-13 10:34:00
6:54 AM,54.5,49.8,84,29.79,10.0,North,6.9,-,N/A,,Clear,350,2013-06-13 10:54:00
7:14 AM,55.4,49.3,80,29.80,10.0,North,10.4,-,N/A,,Clear,350,2013-06-13 11:14:00
7:34 AM,56.3,49.3,77,29.81,10.0,North,10.4,-,N/A,,Clear,360,2013-06-13 11:34:00
7:54 AM,57.7,50.2,76,29.81,10.0,North,9.2,-,N/A,,Clear,360,2013-06-13 11:54:00
8:14 AM,59.4,51.1,74,29.81,10.0,North,8.1,-,N/A,,Clear,360,2013-06-13 12:14:00
8:34 AM,60.3,51.4,73,29.82,10.0,North,6.9,-,N/A,,Clear,10,2013-06-13 12:34:00
8:54 AM,61.7,52.0,70,29.82,10.0,North,6.9,-,N/A,,Clear,350,2013-06-13 12:54:00
9:14 AM,62.6,52.5,70,29.83,7.0,North,8.1,-,N/A,,Clear,350,2013-06-13 13:14:00
9:34 AM,64.0,53.2,68,29.83,10.0,North,9.2,-,N/A,,Clear,350,2013-06-13 13:34:00
9:54 AM,65.7,54.1,66,29.84,10.0,North,6.9,-,N/A,,Scattered Clouds,350,2013-06-13 13:54:00
10:14 AM,66.7,54.0,63,29.84,10.0,North,8.1,-,N/A,,Scattered Clouds,350,2013-06-13 14:14:00
10:34 AM,67.1,53.1,61,29.84,10.0,North,12.7,-,N/A,,Clear,360,2013-06-13 14:34:00
10:54 AM,67.3,54.1,63,29.85,10.0,North,9.2,17.3,N/A,,Scattered Clouds,360,2013-06-13 14:54:00
11:14 AM,66.9,54.5,64,29.85,10.0,North,10.4,16.1,N/A,,Mostly Cloudy,360,2013-06-13 15:14:00
11:34 AM,66.0,54.9,67,29.86,10.0,North,10.4,20.7,N/A,,Overcast,350,2013-06-13 15:34:00
11:54 AM,66.9,55.4,66,29.87,10.0,North,10.4,16.1,N/A,,Overcast,350,2013-06-13 15:54:00
12:14 PM,70.0,56.5,62,29.88,10.0,North,9.2,-,N/A,,Mostly Cloudy,360,2013-06-13 16:14:00
12:34 PM,69.8,55.4,60,29.88,10.0,North,8.1,-,N/A,,Overcast,360,2013-06-13 16:34:00
12:53 PM,70.7,56.1,60,29.88,10.0,North,10.4,-,N/A,,Overcast,350,2013-06-13 16:53:00
1:14 PM,70.0,54.7,58,29.88,10.0,North,9.2,19.6,N/A,,Overcast,360,2013-06-13 17:14:00
1:34 PM,71.1,55.4,58,29.88,10.0,North,10.4,17.3,N/A,,Mostly Cloudy,350,2013-06-13 17:34:00
1:53 PM,72.0,54.9,55,29.89,10.0,North,10.4,17.3,N/A,,Scattered Clouds,360,2013-06-13 17:53:00
2:14 PM,73.2,55.4,54,29.88,10.0,North,9.2,-,N/A,,Scattered Clouds,350,2013-06-13 18:14:00
2:34 PM,73.2,54.5,52,29.89,10.0,North,10.4,-,N/A,,Clear,350,2013-06-13 18:34:00
2:53 PM,73.4,53.6,50,29.89,10.0,North,10.4,-,N/A,,Clear,350,2013-06-13 18:53:00
3:14 PM,73.0,53.2,50,29.89,10.0,North,9.2,17.3,N/A,,Clear,360,2013-06-13 19:14:00
3:34 PM,73.6,52.2,47,29.89,10.0,North,12.7,18.4,N/A,,Clear,360,2013-06-13 19:34:00
3:53 PM,73.6,52.5,48,29.90,10.0,North,15.0,19.6,N/A,,Clear,360,2013-06-13 19:53:00
4:14 PM,73.2,52.7,48,29.91,10.0,North,9.2,17.3,N/A,,Clear,360,2013-06-13 20:14:00
4:34 PM,72.5,52.9,50,29.92,10.0,North,12.7,19.6,N/A,,Clear,360,2013-06-13 20:34:00
4:53 PM,71.8,53.2,52,29.92,10.0,North,15.0,23.0,N/A,,Scattered Clouds,360,2013-06-13 20:53:00
5:14 PM,72.1,53.2,51,29.93,10.0,North,11.5,20.7,N/A,,Scattered Clouds,350,2013-06-13 21:14:00
5:33 PM,73.4,53.4,49,29.93,10.0,NNW,13.8,21.9,N/A,,Mostly Cloudy,340,2013-06-13 21:33:00
5:54 PM,72.3,52.5,50,29.93,10.0,North,12.7,18.4,N/A,,Scattered Clouds,360,2013-06-13 21:54:00
6:14 PM,70.3,52.3,53,29.93,10.0,North,11.5,17.3,N/A,,Mostly Cloudy,350,2013-06-13 22:14:00
6:33 PM,69.3,52.3,55,29.94,10.0,North,12.7,18.4,N/A,,Scattered Clouds,350,2013-06-13 22:33:00
6:54 PM,70.2,52.0,52,29.95,10.0,North,12.7,18.4,N/A,,Clear,360,2013-06-13 22:54:00
7:14 PM,69.6,52.0,53,29.96,10.0,North,13.8,19.6,N/A,,Scattered Clouds,360,2013-06-13 23:14:00
7:33 PM,68.4,51.8,55,29.97,10.0,North,11.5,18.4,N/A,,Clear,360,2013-06-13 23:33:00
7:54 PM,67.5,52.0,58,29.97,10.0,North,15.0,20.7,N/A,,Clear,360,2013-06-13 23:54:00
8:14 PM,66.0,51.4,59,29.98,10.0,North,11.5,21.9,N/A,,Clear,360,2013-06-14 00:14:00
8:33 PM,64.8,51.8,63,29.99,10.0,North,11.5,18.4,N/A,,Clear,360,2013-06-14 00:33:00
8:54 PM,63.9,50.9,63,30.00,10.0,North,9.2,19.6,N/A,,Clear,350,2013-06-14 00:54:00
9:14 PM,63.1,50.2,63,29.99,10.0,North,12.7,21.9,N/A,,Clear,350,2013-06-14 01:14:00
9:33 PM,62.6,49.3,62,30.00,10.0,North,10.4,20.7,N/A,,Clear,350,2013-06-14 01:33:00
9:54 PM,61.7,48.9,63,30.00,10.0,North,9.2,16.1,N/A,,Clear,350,2013-06-14 01:54:00
10:14 PM,60.8,47.7,62,30.00,10.0,North,11.5,18.4,N/A,,Clear,360,2013-06-14 02:14:00
10:33 PM,60.1,46.0,60,30.01,10.0,North,9.2,17.3,N/A,,Clear,360,2013-06-14 02:33:00
10:54 PM,59.2,45.5,60,30.01,10.0,North,12.7,19.6,N/A,,Clear,360,2013-06-14 02:54:00
11:14 PM,58.5,45.0,61,30.02,10.0,North,8.1,-,N/A,,Clear,10,2013-06-14 03:14:00
11:34 PM,57.6,45.1,63,30.02,10.0,North,8.1,-,N/A,,Clear,360,2013-06-14 03:34:00
11:54 PM,56.8,45.0,64,30.02,10.0,North,8.1,-,N/A,,Clear,10,2013-06-14 03:54:00